Pensacola NAS, FL

2:21 PM CDT on April 25, 2017 (GMT -0500)
Pensacola Naval Air Station

Weather History for KNPA - November, 2011

Change the Weather History Date:

Friday, November 11, 2011

  Actual Average Record
Temperature  
Mean Temperature 48 °F -  
Max Temperature 64 °F 70 °F 80 °F (1999)
Min Temperature 32 °F 51 °F 32 °F (2011)
Degree Days  
Heating Degree Days 17    
Moisture  
Dew Point 33 °F    
Average Humidity 66    
Maximum Humidity 100    
Minimum Humidity 26    
Precipitation  
Precipitation 0.00 in - - ()
Sea Level Pressure  
Sea Level Pressure 30.25 in    
Wind  
Wind Speed 5 mph (NNW)    
Max Wind Speed 10 mph    
Max Gust Speed -    
Visibility 10 miles    
Events Rain    
Averages and records for this station are not official NWS values.
T = Trace of Precipitation, MM = Missing Value Source: NWS Daily Summary

Daily Weather History Graph

Daily Weather History Graph

Search for Another Location

Airport or City:

Trip Planner

Search our weather history database for the weather conditions in past years. The results will help you decide how hot, cold, wet, or windy it might be!

Date:

Astronomy

Nov. 11, 2011 Rise Set
Actual Time 6:11 AM CST 4:54 PM CST
Civil Twilight 5:46 AM CST 5:20 PM CST
Nautical Twilight 5:17 AM CST 5:48 PM CST
Astronomical Twilight 4:48 AM CST 6:17 PM CST
Moon 5:29 PM CST (11/11) 6:53 AM CST (11/11)
Length of Visible Light 11h 33m
Length of Day
10h 43m
Full, 99% of the Moon is Illuminated
Nov 11
Full
Nov 18
Last Quarter
Nov 25
New
Dec 2
First Quarter
Dec 10
Full

Hourly Weather History & Observations

Time (CST) Temp. Windchill Dew Point Humidity Pressure Visibility Wind Dir Wind Speed Gust Speed Precip Events Conditions
12:56 AM 42.1 °F 37.7 °F 30.0 °F 62% 30.21 in 10.0 mi NNW 6.9 mph - N/A   Clear
1:56 AM 43.0 °F 38.8 °F 27.0 °F 53% 30.22 in 10.0 mi NNW 6.9 mph - N/A   Clear
2:56 AM 39.9 °F 36.7 °F 28.0 °F 63% 30.23 in 10.0 mi NNW 4.6 mph - N/A   Clear
3:56 AM 35.1 °F - 30.0 °F 82% 30.24 in 10.0 mi Calm Calm - N/A   Clear
4:56 AM 32.0 °F - 30.0 °F 92% 30.26 in 10.0 mi Calm Calm - N/A   Clear
5:56 AM 34.0 °F 29.8 °F 30.9 °F 89% 30.27 in 10.0 mi NNW 4.6 mph - N/A   Clear
6:11 AM 35.6 °F 32.8 °F 32.0 °F 87% 30.27 in 10.0 mi NNW 3.5 mph - N/A   Partly Cloudy
6:56 AM 36.0 °F 33.3 °F 33.1 °F 89% 30.29 in 10.0 mi NNW 3.5 mph - N/A   Partly Cloudy
7:56 AM 46.9 °F - 30.0 °F 52% 30.31 in 10.0 mi North 4.6 mph - N/A   Partly Cloudy
8:56 AM 54.0 °F - 28.0 °F 37% 30.31 in 10.0 mi NNE 6.9 mph - N/A   Clear
9:56 AM 57.9 °F - 27.0 °F 31% 30.30 in 10.0 mi NNE 9.2 mph - N/A   Clear
10:56 AM 60.1 °F - 26.1 °F 27% 30.29 in 10.0 mi North 10.4 mph - N/A   Clear
11:56 AM 62.1 °F - 28.0 °F 28% 30.25 in 10.0 mi NE 9.2 mph - N/A   Clear
12:56 PM 63.0 °F - 28.9 °F 28% 30.23 in 10.0 mi NNE 5.8 mph - N/A   Partly Cloudy
1:56 PM 64.0 °F - 28.0 °F 26% 30.22 in 10.0 mi Calm Calm - N/A   Clear
2:56 PM 61.0 °F - 36.0 °F 39% 30.22 in 10.0 mi South 6.9 mph - N/A   Clear
3:56 PM 60.1 °F - 37.0 °F 42% 30.21 in 10.0 mi SSW 6.9 mph - N/A   Partly Cloudy
4:56 PM 55.0 °F - 39.0 °F 55% 30.22 in 10.0 mi WSW 4.6 mph - N/A   Clear
5:56 PM 46.9 °F - 41.0 °F 80% 30.23 in 10.0 mi West 3.5 mph - N/A   Clear
6:56 PM 44.1 °F - 39.9 °F 85% 30.23 in 10.0 mi Calm Calm - N/A   Clear
7:46 PM 39.2 °F - 39.2 °F 100% 30.24 in 10.0 mi Calm Calm - N/A   Clear
7:56 PM 41.0 °F - 37.9 °F 89% 30.25 in 10.0 mi Calm Calm - N/A   Clear
8:56 PM 39.0 °F - 37.0 °F 93% 30.25 in 10.0 mi Calm Calm - 0.00 in   Clear
9:56 PM 37.9 °F - 37.9 °F 100% 30.26 in 10.0 mi Calm Calm - 0.00 in Rain Light Rain
10:56 PM 37.9 °F - 37.9 °F 100% 30.25 in 10.0 mi Calm Calm - 0.00 in   Clear
11:56 PM 37.0 °F 34.5 °F 36.0 °F 96% 30.25 in 10.0 mi NNW 3.5 mph - 0.00 in   Clear